Theta_e
299 299 299 298 298 298 298 296 296 298 298 296 296 295 294 294 293 291 288 285 284 284 285 288 289 288 289 290 288 286 286 287 287 286 285 284 283 283 282 282 281 281
299 299 299 298 298 299 298 297 296 298 299 297 296 294 294 294 293 292 289 285 284 284 285 288 289 289 290 290 288 286 287 287 287 286 285 284 283 282 282 282 281 281
299 299 299 298 298 299 299 298 296 297 298 297 295 294 294 294 293 292 289 286 284 284 286 288 289 289 291 290 289 287 287 287 287 287 286 284 283 282 282 282 281 281
299 299 299 298 299 299 299 299 297 297 298 297 295 294 294 294 293 292 290 286 283 283 286 289 289 290 291 291 289 288 288 288 287 287 287 285 283 282 282 282 281 281
299 300 299 299 299 299 299 299 298 297 298 298 296 294 294 294 294 292 291 287 284 283 287 289 289 290 292 291 290 289 289 289 288 288 287 285 284 282 282 281 281 281
299 299 299 299 299 299 300 300 298 297 298 298 296 295 294 295 294 293 291 288 284 284 287 290 290 291 292 292 291 290 289 289 289 289 288 286 284 283 282 282 281 281
299 299 299 299 299 300 300 300 299 297 298 298 296 295 295 295 294 293 292 289 285 285 288 290 290 292 292 292 291 291 290 290 290 290 289 287 286 284 283 282 281 281
299 299 299 299 299 300 300 301 300 297 297 298 296 295 295 295 294 293 292 290 285 285 289 290 291 292 293 292 292 291 291 290 290 290 289 288 287 286 285 283 282 281
299 299 299 299 299 300 300 301 302 299 297 298 297 296 295 294 294 293 292 290 286 286 289 290 291 292 293 292 292 291 291 291 290 290 289 289 288 287 286 285 283 282
299 299 299 299 299 300 300 301 302 300 298 298 297 296 295 294 294 293 292 290 287 287 290 291 291 293 293 292 292 291 291 291 290 290 289 289 288 287 287 286 285 283
299 299 299 299 299 300 300 301 303 302 299 298 297 296 295 294 294 293 292 291 289 289 291 291 292 293 293 292 292 291 291 291 291 290 289 289 288 288 287 287 286 285
300 299 299 299 299 300 300 301 302 303 301 299 297 297 296 294 294 293 293 292 290 290 291 291 292 293 293 292 292 291 291 291 291 290 289 289 288 288 288 288 287 286
300 300 300 300 299 300 300 300 302 303 303 301 298 297 296 295 294 293 293 293 292 291 291 291 292 292 292 292 292 291 291 291 291 290 290 289 289 288 288 288 287 287
301 301 300 300 300 300 300 300 301 303 303 302 300 297 296 295 294 294 293 293 292 291 291 291 292 292 292 292 292 291 291 291 291 290 290 289 289 289 288 288 288 287
301 301 300 300 300 299 300 300 301 302 303 303 301 299 297 295 294 293 294 293 292 292 291 291 292 292 292 293 293 292 292 291 291 291 290 290 289 289 289 288 288 288
301 301 300 300 300 300 300 300 301 302 302 303 302 300 298 296 294 293 293 294 293 292 291 292 292 292 292 293 293 292 292 291 291 291 291 290 290 290 289 289 288 288
301 301 300 300 299 299 299 300 301 302 302 303 302 301 299 297 294 293 293 294 293 292 292 292 293 293 293 293 293 293 292 291 291 291 291 290 290 290 290 289 289 288
302 301 300 299 299 299 299 300 300 301 302 303 302 301 299 297 294 293 293 294 293 293 292 292 293 293 293 293 293 293 292 291 291 291 291 291 291 291 290 290 289 289
301 300 300 299 299 299 299 299 300 301 302 302 302 301 299 298 295 293 293 293 294 294 293 293 293 293 293 293 293 293 292 291 291 291 291 291 291 291 291 290 290 289
301 300 300 299 299 299 299 299 300 301 302 303 302 301 300 298 296 293 293 293 294 294 294 293 293 293 293 293 293 293 293 292 291 291 291 291 292 291 291 291 290 290
301 301 300 299 299 299 298 299 300 301 302 302 301 301 300 298 296 294 293 293 294 294 294 294 294 294 293 293 293 293 293 292 291 291 291 291 291 292 292 292 291 290
301 300 300 299 298 298 298 299 300 300 301 302 301 301 299 297 296 295 294 294 294 294 294 294 294 294 294 294 294 293 293 292 291 291 291 291 292 292 292 292 292 291
301 300 299 299 298 298 298 299 299 300 300 300 299 298 297 296 297 297 295 294 293 293 293 294 294 294 294 294 294 294 293 292 291 291 291 292 292 293 292 292 292 292
301 301 300 299 299 298 298 299 299 299 299 299 298 298 297 298 297 296 295 294 293 293 293 293 294 294 294 295 294 294 293 293 292 292 291 292 292 293 293 292 292 292
302 301 300 299 299 299 299 299 299 299 298 298 298 298 298 298 296 295 295 295 294 293 292 293 294 294 294 294 294 294 294 293 293 292 292 292 292 293 293 292 292 292
302 302 301 300 300 300 300 299 299 298 298 297 298 298 297 296 295 294 295 294 293 293 293 293 293 294 294 294 294 294 294 293 293 292 292 293 293 293 293 293 293 293
Wind_Speed
28 27 26 25 23 22 21 19 18 17 15 14 12 9 7 8 9 9 8 7 6 4 3 2 2 2 2 3 3 3 4 6 7 8 8 8 8 8 7 8 8 8
28 27 28 26 25 24 23 20 18 17 15 14 13 11 9 9 10 10 9 8 7 5 4 4 4 3 2 2 2 2 3 5 6 7 7 7 7 7 7 7 7 7
28 28 29 28 27 26 23 21 19 17 16 15 14 13 12 11 11 11 11 10 8 6 5 5 5 4 3 2 2 2 2 3 5 6 7 6 6 6 6 6 7 7
28 29 29 29 28 26 24 22 20 18 17 17 16 15 14 12 12 12 12 11 9 8 7 7 7 5 4 3 2 2 1 2 4 5 6 5 5 5 5 6 6 6
28 28 30 30 29 26 25 23 21 20 19 18 17 17 16 14 13 13 13 13 11 9 8 8 8 6 5 4 3 2 1 1 2 4 5 4 4 4 5 5 5 5
28 30 31 31 29 27 25 23 22 21 21 19 19 19 18 16 14 13 14 14 13 11 10 10 9 8 6 5 4 3 2 1 1 2 3 3 4 4 4 4 4 4
30 31 32 31 29 28 26 24 23 23 22 20 20 20 19 18 16 14 14 15 14 13 12 11 10 9 7 6 5 5 4 2 0 1 2 2 3 3 4 4 4 4
30 31 31 31 30 29 27 26 25 24 23 22 22 22 21 20 17 15 15 16 15 14 13 13 12 10 8 8 7 6 5 3 2 1 1 1 2 3 4 4 5 5
30 31 31 31 31 31 29 27 25 25 24 23 22 22 22 21 18 16 16 17 17 15 15 14 13 12 10 9 8 7 6 4 3 2 1 1 2 3 4 4 5 6
30 31 32 32 32 31 30 28 27 26 26 25 23 23 23 22 20 18 18 18 18 18 17 16 15 13 12 11 9 8 7 5 4 3 2 2 2 3 4 4 5 6
30 32 32 33 33 32 31 30 29 28 27 26 25 25 24 23 22 20 19 20 20 19 18 17 16 15 13 12 11 9 8 6 5 4 3 3 3 3 4 5 5 7
31 33 34 34 34 33 33 32 30 29 28 27 27 26 25 24 24 22 21 20 20 20 19 18 17 16 14 13 12 11 9 7 7 6 5 4 4 4 4 5 6 7
33 34 35 35 34 33 33 33 31 30 29 27 27 27 26 25 26 24 22 20 20 21 20 19 18 17 16 15 14 13 11 9 8 7 6 5 5 5 5 6 6 7
34 34 34 34 33 33 33 33 32 31 29 28 28 27 27 27 27 25 22 20 21 22 21 21 21 20 18 17 16 14 12 11 10 9 7 6 6 6 6 6 7 7
34 33 34 33 33 33 33 33 33 31 29 29 29 28 28 28 28 25 23 22 23 23 23 23 23 22 20 18 17 16 14 13 12 11 9 8 7 7 7 7 7 8
33 33 34 33 33 34 34 33 33 32 30 30 30 28 28 29 29 27 25 24 24 25 25 26 26 24 22 20 18 17 16 14 14 12 11 10 9 9 9 9 9 9
32 34 34 34 34 34 33 33 34 33 31 31 31 30 30 30 30 29 28 26 25 26 27 27 27 25 23 21 20 19 18 17 16 14 13 12 11 11 10 10 10 10
33 33 33 33 33 32 32 33 33 32 31 32 32 32 31 30 31 31 30 28 27 27 28 29 28 26 24 22 21 21 20 19 18 16 15 14 13 13 12 12 13 13
32 32 32 32 32 31 32 33 33 33 32 33 34 33 31 31 32 33 33 31 29 28 30 30 29 27 25 24 23 22 22 21 20 19 18 16 15 15 15 15 15 15
31 31 31 31 30 31 32 33 33 33 34 34 34 33 32 32 34 35 34 33 31 30 31 31 30 28 27 26 25 24 23 23 22 21 20 19 18 17 17 17 17 17
30 30 30 30 30 30 31 32 33 34 34 34 34 33 33 34 35 35 35 34 33 32 32 32 31 29 28 27 26 26 25 24 24 23 22 21 21 20 20 20 19 19
30 30 30 30 30 30 31 33 34 35 35 34 34 34 34 34 35 35 34 34 34 34 34 34 33 30 29 28 28 27 26 26 26 26 25 24 24 23 22 22 22 21
29 30 30 30 31 31 33 34 35 35 35 34 34 34 35 35 36 35 34 35 35 36 37 36 34 32 30 29 29 29 28 28 28 28 28 28 27 26 25 25 24 23
29 30 31 31 32 33 34 34 34 34 34 33 34 34 35 36 35 35 34 35 36 37 38 37 35 33 32 30 30 30 30 30 30 30 31 31 30 29 28 27 27 26
29 30 30 31 32 33 34 34 33 33 33 33 33 34 34 34 34 34 34 35 36 37 37 36 35 35 34 33 32 32 31 31 31 32 33 34 33 32 31 30 29 28
28 29 30 31 32 33 32 32 32 32 31 32 32 32 32 33 33 33 34 35 36 36 36 36 36 36 36 35 34 33 33 32 32 33 35 36 35 34 33 32 32 31
Wind_Direction
224 228 235 239 241 241 240 240 241 237 235 237 237 235 233 244 247 232 218 209 197 182 174 184 185 161 114 85 74 68 66 62 58 55 50 45 48 51 56 58 57 59
225 228 234 238 239 239 240 242 244 241 238 239 237 230 227 239 246 234 220 213 202 185 180 196 192 174 155 113 94 79 67 64 61 58 51 44 48 52 53 56 55 56
227 229 233 237 238 238 239 242 244 241 237 238 234 228 228 235 242 235 222 214 204 190 190 199 194 186 176 144 121 99 73 64 62 60 54 47 48 52 50 51 52 54
227 229 234 238 238 238 239 241 244 239 234 236 234 229 229 231 235 233 224 215 205 194 198 200 194 192 183 165 154 140 106 70 65 59 53 49 49 51 47 44 46 47
228 230 234 237 237 237 238 241 244 240 235 237 234 229 230 231 231 231 226 217 206 198 201 201 197 194 187 179 176 174 177 88 70 59 52 51 47 46 43 37 35 36
231 231 234 236 236 236 239 242 244 240 236 237 235 230 231 233 230 228 228 221 209 203 203 201 199 196 192 190 187 190 202 194 73 53 52 49 44 40 35 30 24 18
231 232 234 235 235 236 239 241 242 239 237 238 237 233 232 234 229 224 227 223 213 208 206 202 201 199 198 199 196 201 209 209 214 38 45 37 36 32 22 19 12 2
230 233 235 234 233 234 237 238 239 237 236 237 238 235 234 234 230 223 225 223 214 211 208 202 201 203 205 205 203 208 215 215 229 272 358 7 14 16 12 8 357 350
230 232 233 232 232 233 235 237 237 236 235 237 238 237 235 234 230 224 225 223 216 213 210 204 203 205 208 209 208 212 219 223 233 252 286 324 341 355 357 354 347 342
228 230 231 231 231 233 235 236 236 233 234 236 238 236 235 233 230 224 225 225 219 214 211 206 205 207 210 212 212 214 221 227 235 249 269 298 319 335 338 338 337 332
225 228 230 231 231 232 233 235 234 232 231 234 236 235 233 232 230 224 223 225 222 218 215 210 208 210 213 214 216 218 223 229 239 250 260 280 303 318 324 326 325 325
224 227 229 231 230 230 231 233 233 231 230 231 235 236 233 232 231 227 225 227 225 221 218 214 211 213 215 217 219 222 225 231 241 250 258 271 287 304 312 314 315 317
225 227 229 230 230 229 230 232 233 232 231 231 233 235 233 233 232 228 227 229 229 223 219 216 214 215 217 218 221 225 227 233 240 246 255 264 277 291 301 306 308 309
226 228 230 230 230 229 229 230 233 233 232 231 232 233 234 235 234 231 228 230 230 226 221 218 216 218 219 219 223 227 228 231 238 244 249 256 267 281 289 295 302 303
226 228 230 230 229 229 228 228 232 233 232 232 232 232 235 237 236 233 230 231 231 227 222 220 220 221 221 222 225 228 230 232 237 242 247 251 259 271 280 287 293 297
225 227 229 229 229 228 227 227 230 233 232 232 233 233 234 237 236 233 231 232 232 229 224 223 223 224 224 225 228 231 233 235 237 241 245 250 257 264 273 282 287 292
225 227 228 229 228 227 226 226 229 231 232 233 233 233 234 235 235 234 232 232 232 232 229 228 228 227 226 227 229 231 234 235 237 242 246 250 257 263 269 277 282 286
225 226 226 227 227 226 226 226 228 230 232 233 233 233 233 234 235 235 234 233 233 233 233 232 232 231 229 229 232 233 235 237 239 242 246 250 255 262 267 272 277 282
224 225 225 226 227 227 226 226 227 230 233 234 234 235 235 235 236 235 235 234 233 234 235 235 235 234 232 232 234 235 236 239 241 243 247 251 255 261 265 269 273 278
224 224 226 227 227 226 226 226 227 232 234 235 235 235 235 236 236 235 234 234 235 236 237 237 236 236 235 234 235 237 237 239 242 244 247 251 255 259 263 267 271 274
224 224 225 225 226 225 225 227 229 232 234 235 235 236 237 238 237 236 236 237 238 238 239 240 239 238 237 237 237 237 237 240 244 246 248 251 254 257 261 266 269 271
223 223 223 224 224 224 226 228 230 232 234 235 235 236 237 238 239 239 239 239 240 240 240 241 241 240 239 240 240 239 238 240 244 247 250 252 254 257 260 264 268 270
224 223 223 223 224 225 227 229 230 232 234 234 234 234 235 237 239 240 240 240 240 240 241 243 244 243 242 242 242 241 240 240 243 246 249 253 255 258 260 263 266 269
226 225 224 224 224 226 228 230 231 233 234 234 234 235 237 240 241 241 241 242 242 242 243 244 246 247 246 246 245 244 242 242 244 247 250 253 256 258 260 263 265 268
228 227 226 226 227 229 231 232 234 234 235 235 236 239 241 243 243 244 245 245 245 245 245 246 248 250 249 248 248 248 246 245 245 247 250 253 255 258 260 263 265 267
230 229 229 229 231 233 234 235 236 236 236 237 240 242 243 244 244 245 247 248 248 248 249 249 249 250 250 250 250 249 249 248 246 247 250 253 255 258 260 263 265 267